KE8ZZR Weather Reports


Display with metric or nautical units.
time (UTC)temp
F
wind
direction
speed
MPH
gust
MPH
rain 1hr
in
rain 24hr
in
rain mn
in
humidity
%
barometer
mb
20260506113057 44 263 1.0 6.0 0.00 1.37 0.52 94 1008.8
20260506111559 44 248 1.0 6.0 0.00 1.37 0.52 94 1008.2
20260506110057 45 256 2.0 5.0 0.00 1.37 0.52 94 1008.2
20260506104604 44 253 1.0 4.0 0.00 1.37 0.52 94 1008.0
20260506103055 44 311 0.0 4.0 0.01 1.37 0.52 94 1007.3
20260506101557 44 268 0.0 2.0 0.03 1.37 0.52 94 1007.2
20260506100109 44 0 1.0 3.0 0.04 1.37 0.52 94 1006.9
20260506094556 44 316 0.0 3.0 0.05 1.37 0.52 94 1007.3
20260506093059 44 284 1.0 2.0 0.04 1.36 0.51 94 1008.0
20260506091558 44 10 0.0 3.0 0.03 1.34 0.49 94 1007.8
20260506090058 44 299 1.0 3.0 0.04 1.33 0.48 94 1007.8
20260506084603 44 0 0.0 2.0 0.06 1.32 0.47 94 1007.7
20260506083056 44 12 1.0 4.0 0.10 1.32 0.47 94 1007.4
20260506081558 44 288 1.0 4.0 0.13 1.31 0.46 94 1007.5
20260506073057 44 287 1.0 4.0 0.13 1.22 0.37 94 1007.4
20260506071600 44 65 1.0 6.0 0.12 1.17 0.33 93 1007.1
20260506061559 45 0 1.0 3.0 0.12 1.05 0.21 93 1007.2
20260506044605 48 0 1.0 4.0 0.08 0.91 0.06 93 1007.9
20260506043057 48 0 0.0 2.0 0.07 0.88 0.03 93 1008.0
20260506041604 48 352 0.0 3.0 0.06 0.86 0.01 93 1008.2
20260506040109 48 136 1.0 4.0 0.07 0.85 0.00 93 1008.1
20260506034554 48 0 1.0 6.0 0.07 0.83 0.83 93 1008.3
20260506033057 49 342 1.0 3.0 0.07 0.81 0.81 93 1008.4
20260506031601 49 205 1.0 4.0 0.12 0.80 0.80 93 1008.4
20260506030121 49 0 0.0 2.0 0.18 0.78 0.78 93 1008.6
20260506024559 49 0 0.0 3.0 0.23 0.76 0.76 93 1008.7
20260506023107 49 229 2.0 4.0 0.27 0.74 0.74 92 1009.2
20260506021606 49 352 1.0 3.0 0.26 0.68 0.68 92 1008.2
20260506020110 50 0 1.0 4.0 0.25 0.60 0.60 92 1008.2
20260506014613 51 297 2.0 3.0 0.22 0.52 0.52 91 1007.9
20260506013108 52 38 1.0 4.0 0.19 0.47 0.47 91 1007.8
20260506011600 52 41 1.0 3.0 0.15 0.42 0.42 90 1007.7
20260506010107 53 0 1.0 6.0 0.08 0.35 0.35 90 1007.7
20260506004554 54 311 1.0 5.0 0.03 0.30 0.30 89 1007.7
20260506003054 55 80 2.0 4.0 0.04 0.28 0.28 89 1007.6
20260506001556 56 0 0.0 0.0 0.07 0.27 0.27 90 1007.4
20260506000058 56 0 0.0 1.0 0.21 0.27 0.27 90 1007.4
20260505234557 56 0 0.0 1.0 0.26 0.27 0.27 90 1007.5
20260505233114 56 0 0.0 1.0 0.23 0.24 0.24 89 1007.7
20260505231600 56 255 2.0 8.0 0.18 0.19 0.19 89 1007.8
20260505230054 57 240 3.0 9.0 0.05 0.06 0.06 88 1007.7
20260505224559 58 262 1.0 3.0 0.00 0.01 0.01 87 1007.5
20260505223057 58 309 1.0 3.0 0.00 0.01 0.01 87 1007.3
20260505221604 58 227 0.0 2.0 0.00 0.01 0.01 87 1007.5
20260505220057 58 338 0.0 4.0 0.00 0.01 0.01 87 1007.6
20260505214605 58 295 1.0 3.0 0.00 0.01 0.01 87 1007.6
20260505213118 58 338 0.0 2.0 0.00 0.01 0.01 87 1007.5
20260505211602 59 238 2.0 5.0 0.01 0.01 0.01 86 1007.6
20260505210107 59 270 2.0 5.0 0.01 0.01 0.01 85 1007.7
20260505204559 60 255 1.0 5.0 0.01 0.01 0.01 84 1007.6
20260505203058 61 214 1.0 3.0 0.01 0.01 0.01 83 1007.6
20260505201555 62 220 0.0 1.0 0.00 0.00 0.00 79 1007.4
20260505200058 64 0 0.0 2.0 0.00 0.00 0.00 76 1007.3
20260505194603 65 0 1.0 5.0 0.00 0.00 0.00 72 1007.3
20260505193128 65 271 1.0 4.0 0.00 0.00 0.00 71 1007.4
20260505191605 65 283 1.0 6.0 0.00 0.00 0.00 72 1007.5
20260505190058 65 285 2.0 6.0 0.00 0.00 0.00 72 1007.7
20260505184603 64 256 2.0 4.0 0.00 0.00 0.00 73 1007.9
20260505183055 63 234 4.0 10.0 0.00 0.00 0.00 72 1008.2
20260505181556 64 274 3.0 11.0 0.00 0.00 0.00 71 1008.3
20260505180058 64 288 4.0 10.0 0.00 0.00 0.00 70 1007.9
20260505174556 65 235 4.0 12.0 0.00 0.00 0.00 69 1007.8
20260505173100 65 342 6.0 14.0 0.00 0.00 0.00 67 1007.8
20260505171559 66 274 6.0 11.0 0.00 0.00 0.00 65 1007.6
20260505170056 67 272 5.0 14.0 0.00 0.00 0.00 63 1007.6
20260505164557 67 284 2.0 9.0 0.00 0.00 0.00 64 1007.5
20260505163059 68 248 3.0 9.0 0.00 0.00 0.00 63 1007.5
20260505161559 69 285 3.0 11.0 0.00 0.00 0.00 62 1007.5
20260505153104 69 218 2.0 13.0 0.00 0.00 0.00 66 1007.0
20260505151558 68 8 4.0 13.0 0.00 0.00 0.00 66 1007.1
20260505130116 60 304 0.0 1.0 0.00 0.00 0.00 77 1007.0
20260505124617 60 284 2.0 6.0 0.00 0.00 0.00 76 1007.0
20260505123116 60 84 2.0 6.0 0.00 0.00 0.00 77 1006.4
20260505121559 59 304 0.0 4.0 0.00 0.00 0.00 78 1005.9
20260505120103 59 209 1.0 5.0 0.00 0.00 0.00 77 1005.8
20260505114555 60 248 1.0 4.0 0.00 0.00 0.00 76 1006.2